Terug naar catalogus

NOAA 16 DEB

ActiefPO
NORAD 41133·DEBRIS·🇺🇸 United States

Gelanceerd Sep 21, 2000 vanaf Vandenberg Space Force Base

Loading…

Volgende Passages (komende 24 uur)

TLE

VersSource: Space-Track

Epoch: Sep 14, 2026, 11:29 UTC

1 41133U 00055BQ  26257.47871882  .00014585  00000-0  23801-2 0  9998
2 41133  98.9244  83.5792 0012129  29.4443 330.7442 14.70990630559590

Volg NOAA 16 DEB in realtime met AllMySat

Download on the App Store